User: anonymous   Login
Location: Newark
(45.8944°N, 12.5886°E)
Time: 01:29:38
(UTC+00:00)
Language:

CUTE 1.7 + AOD 2 - Orbit

View from above orbital plane
View from above orbital plane
View from above satellite
View from above satellite

Ground track
Ground track

The orbit data is extracted from the following two-line orbital elements,

1 32785U 08021C   20093.77074135  .00000246  00000-0  32100-4 0  9996
2 32785  97.5695  85.1341 0013824  30.4635 329.7383 14.88440538646689
Epoch (UTC): 02 April 2020 18:29:52
Eccentricity: 0.0013824
inclination: 97.5695°
perigee height: 593 km
apogee height: 612 km
right ascension of ascending node: 85.1341°
argument of perigee: 30.4635°
revolutions per day: 14.88440538
mean anomaly at epoch: 329.7383°
orbit number at epoch: 64668

The dashed part of the orbit path shows where the satellite is in the earth's shadow,  

DLR